Regional Weather Roundup
Issued by NWS Jackson, KY

Home | Current Version | Previous Version | Graphics & Text | Print | Product List | Glossary On
Versions: 1 2 3 4 5 6 7 8 9 10 11 12 13 14 15 16 17 18 19 20 21 22 23 24 25 26 27
000
ASUS43 KJKL 250310
RWRJKL

EAST KENTUCKY HOURLY WEATHER ROUNDUP
NATIONAL WEATHER SERVICE JACKSON KY
1100 PM EDT TUE MAY 24 2016

NOTE: "FAIR" INDICATES FEW OR NO CLOUDS BELOW 12,000 FEET WITH
NO SIGNIFICANT WEATHER AND/OR OBSTRUCTIONS TO VISIBILITY.

* THESE REPORTS ARE NOT UNDER NWS QUALITY CONTROL AND MAY NOT
  REPORT WEATHER SUCH AS PRECIPITATION AND FOG.

KYZ079-080-083-085-087-088-110-112-115-119-120-250400
...EASTERN KENTUCKY...

CITY           SKY/WX    TMP DP  RH WIND       PRES   REMARKS
JACKSON        CLEAR     70  46  42 CALM      30.16R
LONDON         CLEAR     61  52  72 CALM      30.16R
SOMERSET*      CLEAR     61  54  77 CALM      30.15R
MONTICELLO*    PTCLDY    62  59  90 NE9       30.15R
WILLIAMSBURG*  CLEAR     61  52  72 CALM      30.16R
MIDDLESBORO*   CLEAR     58  52  79 CALM      30.18R
HARLAN APT*      N/A     59  54  82 CALM      30.19R
HAZARD APT*    CLEAR     61  52  72 CALM      30.16
BLACK MTN*       N/A     61  48  63 S6          N/A
PIKE CO APT*     N/A     67  52  56 CALM      30.16S
MOREHEAD APT*  CLEAR     63  48  59 S5        30.15R
ASHLAND*       CLEAR     59  55  88 CALM      30.10S
$$

KYZ035-036-041-042-044-050-067-078-099-250400
...CENTRAL KENTUCKY...

CITY           SKY/WX    TMP DP  RH WIND       PRES   REMARKS
MT STERLING*   CLEAR     57  55  94 SW3       30.15R
FLEMING/MASON* CLEAR     69  51  52 S6        30.14R
DANVILLE*      CLEAR     63  55  77 CALM      30.14R
RICHMOND*      CLEAR     63  52  67 SE5       30.13R
LEXINGTON      CLEAR     65  51  60 SE6       30.12R
FRANKFORT      CLEAR     67  54  63 SE3       30.10R
LOUISVILLE     MOCLDY    74  57  55 SE5       30.08R
LEBANON*         N/A     68  55  64 S3        30.12R
GLASGOW*       CLEAR     66  59  77 CALM      30.11S
BOWLING GREEN  CLEAR     68  60  75 CALM      30.08S
$$

KYZ091>093-OHZ055-061-077-WVZ005-015-034-035-042-250400
...SOUTHERN OHIO/WEST VIRGINIA...

CITY           SKY/WX    TMP DP  RH WIND       PRES   REMARKS
COVINGTON      CLEAR     67  50  54 S5        30.10R
COLUMBUS       PTCLDY    69  50  50 S3        30.09R
DAYTON         PTCLDY    68  46  45 S6        30.10R
WILMINGTON     CLEAR     63  49  60 S3        30.10S
HUNTINGTON       N/A     64  54  69 E3        30.12R
CHARLESTON       N/A     62  55  77 CALM      30.14R
PINEVILLE*       N/A     55  50  82 MISG      30.23S
BECKLEY          N/A     58  48  69 CALM      30.21R
BLUEFIELD        N/A     61  44  53 SW5       30.23R
LOGAN CO APT*    N/A     66  52  59 CALM      30.16S
$$

VAZ002-007-008-TNZ017-027-036-066-071-250400
...SOUTHWEST VIRGINIA/EAST TENNESSEE...

CITY           SKY/WX    TMP DP  RH WIND       PRES   REMARKS
WISE*            N/A     61  43  51 CALM      30.23S
JONESVILLE*      N/A     57  54  88 CALM      30.20R
ABINGDON*        N/A     60  53  76 CALM      30.21R
BRISTOL        CLEAR     57  52  83 CALM      30.18R
SEVIERVILLE*   CLEAR     61  52  72 CALM      30.16R
KNOXVILLE      PTCLDY    71  51  49 CALM      30.15R
OAK RIDGE      CLEAR     67  57  70 CALM      30.16R
CROSSVILLE     CLEAR     66  53  63 CALM      30.19R
NASHVILLE      PTCLDY    72  57  59 S5        30.10R
$$

...KEY TO REMARKS...
VSB - VISIBILITY IN MILES
WCI - WIND CHILL INDEX
HX  - HEAT INDEX

$$




USA.gov is the U.S. government's official web portal to all federal, state and local government web resources and services.